This is the latest recevied weather packets stored in our database for station/object WV6L-13. If no packets are shown the sender has not sent any weather packets the latest 10 day(s).
| Time | Temp. | Humidity | Pressure | Rain* | Wind** | Luminosity | Snow |
|---|---|---|---|---|---|---|---|
| 1777518595 | 20.56° C | 19% | 924.9 hPa | - | - | - | - |
| 1777518296 | 21.11° C | 19% | 924.8 hPa | - | - | - | - |
| 1777517996 | 21.11° C | 19% | 924.7 hPa | - | - | - | - |
| 1777517696 | 21.11° C | 19% | 924.8 hPa | - | - | - | - |
| 1777517395 | 21.67° C | 19% | 924.8 hPa | - | - | - | - |
| 1777517095 | 21.67° C | 19% | 924.6 hPa | - | - | - | - |
| 1777516796 | 22.22° C | 18% | 924.6 hPa | - | - | - | - |
| 1777516496 | 22.22° C | 18% | 924.6 hPa | - | - | - | - |
| 1777516195 | 22.78° C | 18% | 924.5 hPa | - | - | - | - |
| 1777515896 | 23.33° C | 17% | 924.5 hPa | - | - | - | - |
| 1777515595 | 23.89° C | 17% | 924.3 hPa | - | - | - | - |
| 1777515296 | 23.89° C | 17% | 924.4 hPa | - | - | - | - |
| 1777514996 | 24.44° C | 17% | 924.3 hPa | - | - | - | - |
| 1777514695 | 24.44° C | 16% | 924.4 hPa | - | - | - | - |
| 1777514396 | 25° C | 16% | 924.4 hPa | - | - | - | - |
| 1777514096 | 25° C | 16% | 924.4 hPa | - | - | - | - |
| 1777513795 | 25° C | 16% | 924.5 hPa | - | - | - | - |
| 1777513496 | 25.56° C | 16% | 924.4 hPa | - | - | - | - |
| 1777513196 | 25.56° C | 16% | 924.3 hPa | - | - | - | - |
| 1777512896 | 25.56° C | 16% | 924.6 hPa | - | - | - | - |
| 1777511996 | 25.56° C | 16% | 924.6 hPa | - | - | - | - |
| 1777511696 | 25.56° C | 16% | 924.6 hPa | - | - | - | - |
| 1777511395 | 25.56° C | 16% | 924.6 hPa | - | - | - | - |
| 1777511095 | 25° C | 16% | 924.6 hPa | - | - | - | - |
| 1777510796 | 25.56° C | 16% | 924.6 hPa | - | - | - | - |
* Rain since midnight (hover to see other rain measurements)
** Current wind speed in m/s (hover to see current wind gust speed)